国际通讯卫星 4-F5星 (INTELSAT 4-F5)

导读 | 豆包AI

INTELSAT 4-F5,即国际通信卫星4-F5,是由国际通信卫星组织(ITSO)主导的国际通信卫星4系列第五颗卫星,于1972年6月13日发射入轨。该卫星由休斯空间与通信公司基于HS-312平台研制,发射质量1414千克,配置12路C频段转发器,设计寿命7年,运行在地球静止轨道,至今仍在轨运行,为全球跨洋通信、电视广播提供稳定支撑,是早期全球卫星通信网络的重要组成部分。

基本信息
目录编号:
6052
目录名称:
INTELSAT 4-F5
国际标识:
1972-041A
轨道中心:
EARTH
卫星名称:
国际通讯卫星 4-F5星
卫星全名:
国际通讯卫星 4-F5星 (INTELSAT 4-F5)
卫星状态:
在轨 (已飞行19632 天)
发射日期:
1972-06-13 UTC
国别 :
(ITSO)
星等 :
--
轨道信息
数据来源 国际轨道数据
星历时间: 2026-03-14T00:16:30+0800
13小时前
查看轨道信息
半长轴: 42214.027km
偏心率: 0.0003107
轨道倾角: 5.966°
近地点辐角 322.612°
升交点赤经 287.722°
平近点角 37.244°
近地点: 35822.774km
远地点: 35849.006km
周期: 1438.616分钟
每日圈数: 1.000962
详细信息
卫星平台:
HS-353
平衡模式:
自旋稳定
覆盖范围:
全球
运营商:
国际卫星通信公司
运营商所在国:
美国
制造商(研发单位):
休斯公司
制造商所在国:
美国
使用方式:
暂无
卫星简介
从1965年4月至1984年3月,国际通信卫星组织发射了5代、6种不同性能的卫星共计35颗,除6颗卫星因运载火箭和远地点发动机故障而发射失败外,其余29颗卫星均被送到了预定的静止轨道位置。1984年8月前后,国际通信卫星组织利用部署在大西洋、太平洋、印度洋上空的15颗国际通信卫星,为遍布世界各地170多个国家或地区提供电话、电传、电报、电视和数据传输等电信业务;该卫星已退役。
2D轨道图
3D轨道图
轨道高度分析图
轨道倾角分析图
轨道综合分析图
查看轨道综合分析图